Location: Neuvy Saint Sepulchre
(46.5953°N, 1.8122°E)
Time: 11:23:26
(UTC+02:00)

ISS - Pass Details

Date: 06 May 2021
Orbit: 417 x 422 km, 51.6° (Epoch: 15 May)

Event Time Altitude Azimuth Distance (km) Brightness Sun altitude
Exits shadow 02:48:18 14° 75° (ENE) 1,263 -1.0 -25.5°
Drops below altitude 10° 02:48:55 10° 72° (ENE) 1,504 -0.6 -25.4°
Sets 02:51:04 0° 66° (ENE) 2,373 0.6 -25.3°
